Location: Breckenridge
(39.4820°N, 106.0380°W)
Time: 04:23:28
(UTC-06:00)

ISS - Pass Details

Date: 30 March 2019
Orbit: 408 x 410 km, 51.6° (Epoch: 24 April)

Event Time Altitude Azimuth Distance (km) Brightness Sun altitude
Rises 21:35:20 0° 315° (NW) 2,329 1.3 -24.6°
Reaches altitude 10° 21:38:16 10° 344° (NNW) 1,467 -0.5 -25.1°
Enters shadow 21:39:16 13° 1° (N) 1,314 -1.0 -25.2°
